Temp
50 50 51 51 51 51 51 51 51 52 52 52 53 53 53 53 52 51 51 53 46 39 47 48 43 36 40 45 43 51 49 52 52 46 42 38 45 57 57 62 60 57 55 56 60 56 53 78 77 68 76 79 82 83
50 50 50 50 50 50 50 51 51 51 52 52 53 53 53 52 52 52 45 51 51 43 50 56 53 55 50 52 47 50 50 52 56 51 52 50 43 51 54 51 64 56 64 61 63 63 72 78 78 80 84 82 82 83
50 51 50 50 50 50 50 51 51 51 52 52 53 53 52 52 52 52 52 56 46 44 51 54 54 58 59 60 60 47 51 51 52 55 51 54 45 53 44 52 58 63 68 63 63 70 72 77 79 82 84 83 84 85
50 50 50 50 50 50 50 50 51 51 51 52 53 52 53 53 53 53 52 54 51 49 42 51 61 56 61 61 58 58 55 57 55 56 50 52 48 58 54 57 58 64 67 62 62 68 73 76 79 82 82 83 81 86
50 50 50 50 50 50 50 50 51 51 52 52 53 53 53 53 52 55 56 56 56 46 40 49 57 59 60 59 56 57 54 53 54 49 47 46 55 54 59 59 57 65 62 61 61 70 71 74 80 83 80 79 83 85
49 50 50 51 51 50 50 50 51 51 52 52 53 53 52 52 52 53 49 59 57 51 44 38 57 54 56 56 55 54 55 54 54 50 50 51 57 51 48 49 59 66 68 67 65 66 67 70 73 78 80 82 84 83
49 49 50 50 51 51 51 51 51 51 51 51 52 52 52 52 57 50 46 52 53 53 43 40 43 56 55 50 49 50 53 54 53 51 51 52 51 51 48 46 60 66 67 66 67 66 66 72 74 80 81 84 79 84
49 49 49 50 50 50 51 51 52 52 51 51 51 51 52 51 51 53 56 54 54 51 45 35 37 44 52 43 42 50 48 52 50 51 53 51 55 50 44 56 61 65 68 65 66 69 67 70 71 73 78 81 80 80
49 49 49 49 50 50 50 50 51 51 51 51 51 51 56 55 53 55 53 53 58 51 41 38 34 33 52 45 44 46 48 39 53 45 50 48 46 43 52 56 60 62 61 63 67 70 70 69 71 74 77 79 80 81
49 49 49 49 49 50 50 50 51 51 51 51 56 55 49 56 52 54 50 48 48 51 48 41 44 35 39 38 39 39 40 40 35 47 54 45 45 56 59 61 63 63 62 62 59 60 65 67 71 74 75 79 80 82
49 49 49 49 49 50 50 51 50 50 52 52 45 47 56 54 55 50 42 43 47 40 48 46 41 36 43 36 36 43 37 44 35 44 45 46 48 54 60 61 64 63 63 63 63 64 67 68 69 74 76 79 81 82
49 49 49 49 49 49 50 50 50 52 49 48 46 48 51 51 49 42 42 46 43 41 50 44 43 43 40 40 34 37 34 40 33 48 44 43 52 57 58 58 60 62 62 62 62 63 67 68 70 72 77 79 81 82
49 49 49 49 49 50 50 50 50 50 51 52 48 47 47 47 35 34 31 40 40 47 51 47 41 42 42 41 38 35 32 33 36 34 40 44 51 52 50 54 58 61 61 60 61 65 69 70 72 75 76 78 79 78
48 49 49 49 50 50 50 49 50 53 56 49 45 34 36 35 36 35 36 36 42 46 48 47 44 46 49 41 38 33 37 35 32 32 34 42 44 46 49 50 52 57 60 60 60 65 67 67 68 69 70 70 67 69
48 49 49 52 51 49 49 49 50 60 55 47 47 34 36 42 42 45 46 44 51 53 49 48 48 49 42 40 40 35 33 33 33 33 38 43 46 46 46 48 49 53 53 50 53 60 61 63 64 62 63 64 67 69
48 49 56 50 49 49 49 54 59 60 55 51 49 43 49 46 48 51 51 51 56 54 54 52 43 40 37 34 33 32 32 30 32 40 43 45 45 46 47 49 48 48 48 47 51 58 60 57 58 57 57 60 62 70
47 57 50 49 48 49 50 57 59 51 51 49 46 52 50 50 49 51 54 53 58 52 44 45 35 34 38 34 33 33 32 32 37 42 45 49 52 52 52 52 49 49 50 51 52 52 52 53 56 57 55 59 61 64
55 58 52 49 49 53 60 58 54 52 47 51 46 51 52 53 53 54 56 58 54 52 49 43 47 37 33 32 33 33 35 37 42 44 46 50 55 56 59 56 56 56 56 55 54 55 56 56 54 55 59 63 64 66
50 51 49 48 50 52 51 54 54 47 50 52 54 55 56 56 58 59 59 59 58 58 56 52 43 37 36 39 41 43 42 42 42 44 47 51 56 58 59 60 59 59 57 58 58 58 58 58 58 60 63 65 65 67
47 48 48 49 51 53 49 52 57 49 47 51 54 52 54 55 58 59 58 57 55 54 48 45 46 48 46 49 51 50 51 51 49 46 47 52 55 58 59 61 61 60 61 61 61 55 62 61 61 60 61 61 64 63
51 55 51 55 57 55 53 52 52 50 50 49 55 54 52 58 55 54 54 58 52 47 45 51 52 54 56 58 58 55 54 55 54 52 51 54 60 62 62 63 63 63 61 61 60 60 58 61 63 64 63 63 63 65
56 49 55 56 52 52 51 55 49 53 50 51 52 54 50 47 49 53 56 51 50 51 52 53 54 55 57 56 58 58 59 61 60 58 51 54 58 59 60 62 62 61 61 62 62 61 60 62 64 64 64 64 61 62
50 51 53 51 46 44 44 54 47 50 45 47 50 47 49 48 53 57 49 54 54 56 57 56 56 59 59 60 61 60 60 61 60 60 61 60 61 63 62 62 62 61 60 61 64 63 62 48 59 65 65 65 65 64
47 47 42 44 46 40 49 45 49 47 47 44 43 42 45 48 52 50 46 51 54 57 56 54 56 57 59 59 58 58 59 63 61 60 61 62 60 60 62 61 61 62 62 62 61 62 63 63 54 65 65 64 64 63
38 36 40 34 45 41 40 40 41 43 39 41 39 42 44 49 43 45 44 49 53 53 54 54 54 55 54 55 57 58 59 60 60 58 59 61 63 62 61 62 60 59 62 61 60 61 61 61 62 62 63 63 62 62
32 36 35 40 41 40 42 36 38 38 41 38 38 45 45 43 38 36 45 51 52 53 52 49 44 43 51 54 54 55 56 60 62 57 56 59 58 58 56 56 57 56 59 60 60 59 59 60 60 60 59 56 44 58
32 34 42 49 47 46 43 45 46 41 37 36 41 39 40 34 36 44 54 55 53 56 56 56 54 50 46 48 53 55 58 58 56 56 57 57 57 56 56 54 51 52 57 57 59 59 58 59 58 58 59 59 58 59
40 43 37 39 43 44 39 39 38 37 41 45 44 36 36 37 39 51 54 56 57 58 58 57 56 56 55 52 52 54 56 58 58 58 60 58 56 55 55 57 55 35 54 54 54 58 58 60 59 58 58 57 57 58
38 43 45 37 40 40 41 40 42 47 50 47 40 40 43 51 54 54 56 58 58 56 54 54 53 55 55 55 53 53 53 54 54 51 50 53 55 53 55 55 55 55 56 57 34 42 49 54 56 58 57 58 57 56
40 47 40 40 38 38 45 49 48 52 53 52 52 50 50 52 56 59 58 56 54 54 56 56 52 49 50 49 46 46 51 51 51 51 51 50 49 53 53 53 53 54 54 54 54 55 40 51 48 56 54 52 49 49
48 46 42 42 41 47 51 53 53 52 51 50 51 48 47 51 55 58 56 56 55 55 54 53 52 49 45 41 40 43 47 49 48 47 47 51 52 51 50 51 52 53 52 51 48 49 49 47 43 40 40 39 39 39
45 43 42 37 40 48 51 48 47 47 48 47 47 50 50 49 46 51 52 50 50 50 45 46 46 42 46 47 46 45 37 47 47 45 44 47 48 48 50 51 52 51 50 47 46 44 42 39 38 39 38 36 38 38
43 45 43 42 38 39 46 45 40 41 43 39 44 47 47 47 42 49 50 50 48 49 45 42 42 42 43 43 43 42 40 43 36 31 32 31 30 34 46 49 49 48 47 45 45 44 43 42 40 40 39 39 38 37
MSLP
1020.30 1019.56 1018.83 1018.12 1017.35 1016.62 1015.68 1014.75 1013.80 1012.86 1011.93 1011.12 1010.46 1009.94 1009.54 1009.40 1009.51 1009.75 1009.38 1009.43 1009.60 1008.99 1007.04 1006.79 1007.08 1006.90 1005.72 1004.39 1003.29 1002.38 1002.41 1002.13 1001.51 1000.83 1001.27 1001.18 999.00 995.60 994.18 993.08 993.01 993.28 993.23 993.00 992.96 992.90 992.48 992.43 992.35 992.48 992.36 992.68 992.86 993.08
1020.16 1019.40 1018.72 1018.02 1017.29 1016.53 1015.72 1014.80 1013.94 1013.08 1012.19 1011.33 1010.57 1010.07 1009.74 1009.54 1009.50 1009.53 1009.34 1009.30 1009.27 1008.83 1006.58 1006.10 1005.89 1005.45 1005.51 1004.78 1004.39 1003.34 1002.32 1001.42 1000.94 1000.77 1000.27 1000.28 1000.30 997.76 995.89 993.88 993.72 993.13 992.84 992.78 992.96 992.89 992.96 992.79 992.25 992.77 992.41 992.56 992.99 993.04
1019.98 1019.19 1018.54 1017.89 1017.20 1016.47 1015.69 1014.83 1014.01 1013.19 1012.39 1011.58 1010.73 1010.03 1009.93 1009.77 1009.71 1009.53 1008.98 1008.80 1008.94 1008.08 1005.95 1004.94 1004.27 1004.46 1005.01 1004.67 1004.64 1003.95 1003.21 1003.41 1002.55 1002.37 1001.05 999.49 998.96 999.09 997.74 995.63 994.67 994.46 994.13 993.81 993.75 993.26 993.33 993.05 993.08 992.75 992.82 992.79 993.05 993.20
1019.88 1019.08 1018.39 1017.76 1017.08 1016.37 1015.59 1014.77 1013.99 1013.24 1012.52 1011.74 1011.12 1010.55 1010.14 1009.90 1009.58 1009.20 1008.81 1008.77 1008.35 1007.58 1006.31 1004.45 1004.70 1004.31 1004.38 1004.46 1004.44 1004.38 1004.13 1003.91 1003.51 1002.65 1001.75 1000.52 999.65 998.91 997.73 996.84 995.72 995.04 994.96 994.82 994.53 994.44 993.89 993.61 993.17 992.91 993.14 993.45 993.74 993.49
1019.85 1018.97 1018.21 1017.58 1016.88 1016.19 1015.51 1014.68 1013.88 1013.16 1012.51 1011.81 1011.22 1010.81 1010.38 1010.02 1009.67 1009.13 1008.75 1008.55 1008.47 1008.34 1006.96 1004.96 1004.29 1003.98 1004.18 1004.23 1004.23 1004.24 1004.22 1003.96 1003.18 1002.61 1001.92 1001.05 1000.11 999.53 998.03 997.22 996.02 995.34 994.81 994.42 994.16 994.85 994.39 994.01 993.67 993.08 993.49 993.62 993.67 993.42
1019.80 1018.93 1018.08 1017.30 1016.57 1015.86 1015.21 1014.47 1013.67 1012.98 1012.35 1011.69 1011.11 1010.68 1010.37 1009.98 1009.51 1008.87 1007.96 1008.24 1008.33 1008.43 1007.53 1005.67 1004.11 1004.00 1004.09 1004.22 1004.08 1004.06 1003.91 1003.87 1003.28 1002.57 1001.81 1001.37 1000.66 1000.35 998.21 996.81 996.32 996.07 995.74 996.01 995.70 996.10 996.11 995.46 995.03 994.25 993.47 993.38 993.66 993.87
1019.71 1018.83 1017.98 1017.13 1016.34 1015.57 1014.87 1014.19 1013.42 1012.66 1012.03 1011.45 1010.91 1010.42 1010.12 1009.90 1009.34 1008.86 1008.85 1008.68 1008.53 1008.24 1007.55 1005.98 1004.50 1003.64 1004.00 1004.49 1004.37 1004.16 1004.02 1003.55 1003.32 1002.40 1001.61 1000.94 1000.81 1000.55 999.07 997.16 996.07 995.78 995.98 996.28 996.42 996.61 996.01 995.27 994.65 994.27 993.90 993.37 993.48 993.74
1019.52 1018.58 1017.80 1016.96 1016.11 1015.29 1014.51 1013.76 1013.06 1012.33 1011.58 1010.95 1010.42 1009.97 1009.66 1009.51 1009.23 1008.57 1008.43 1008.65 1008.37 1007.70 1007.59 1006.82 1005.39 1004.30 1004.27 1004.26 1004.16 1003.93 1003.54 1003.28 1002.91 1002.00 1001.26 1000.54 999.97 1000.12 998.43 996.87 996.60 996.06 995.80 996.27 996.35 996.71 996.69 995.98 995.45 995.14 994.43 993.83 993.71 993.81
1019.24 1018.28 1017.44 1016.64 1015.80 1014.94 1014.14 1013.33 1012.56 1011.79 1011.02 1010.35 1009.77 1009.48 1009.20 1008.93 1008.21 1007.81 1008.40 1008.28 1007.67 1007.87 1007.03 1006.90 1005.89 1005.10 1004.55 1004.30 1004.38 1004.04 1003.57 1003.09 1002.24 1001.35 1000.33 1000.53 999.30 998.07 996.94 996.75 996.17 996.50 996.46 996.33 996.42 996.05 995.99 995.70 994.84 994.35 993.86 993.31 992.89 993.12
1018.85 1017.94 1017.03 1016.22 1015.44 1014.64 1013.76 1012.94 1012.17 1011.37 1010.48 1009.90 1009.13 1008.73 1008.15 1008.12 1008.66 1008.29 1008.04 1007.34 1007.09 1006.80 1006.74 1006.08 1005.61 1005.44 1005.73 1004.85 1004.24 1004.25 1003.63 1002.70 1001.78 999.95 999.39 998.88 997.70 997.09 996.62 996.65 996.46 996.26 996.64 996.70 996.43 996.05 995.67 995.06 994.24 993.46 993.36 993.22 993.00 992.90
1018.38 1017.57 1016.63 1015.78 1014.99 1014.19 1013.37 1012.60 1011.92 1011.11 1010.23 1009.95 1009.75 1009.11 1008.59 1008.44 1007.94 1007.49 1007.19 1006.70 1006.04 1005.78 1005.44 1005.23 1005.47 1005.24 1004.90 1004.65 1004.29 1003.90 1003.23 1001.71 1000.66 998.99 998.50 996.87 995.50 995.47 995.83 995.93 995.84 996.11 996.18 996.24 996.17 995.92 995.46 994.86 994.29 993.46 992.90 992.62 992.41 992.51
1017.93 1017.11 1016.21 1015.39 1014.64 1013.88 1013.05 1012.39 1011.76 1011.06 1010.77 1010.94 1010.93 1010.37 1009.42 1008.11 1007.41 1007.21 1006.49 1006.04 1005.62 1004.67 1004.16 1004.30 1004.39 1004.42 1004.32 1004.39 1004.30 1003.71 1002.73 1001.78 1000.23 998.99 997.96 996.05 995.06 994.98 995.24 995.56 995.55 995.68 995.84 995.61 995.59 995.35 994.82 994.32 993.83 993.41 992.58 992.17 992.24 992.64
1017.53 1016.66 1015.74 1014.96 1014.26 1013.51 1012.74 1012.08 1011.56 1011.11 1010.57 1010.37 1010.32 1009.53 1008.93 1008.33 1008.07 1007.71 1007.37 1006.28 1005.67 1004.77 1003.89 1003.82 1003.78 1003.91 1003.72 1003.57 1003.12 1002.74 1001.83 1001.02 1000.83 999.58 997.70 996.66 996.24 996.27 996.41 996.13 995.77 995.68 995.75 995.64 995.39 994.94 994.29 993.83 993.40 992.77 992.48 992.60 992.94 993.58
1017.08 1016.13 1015.31 1014.53 1013.92 1013.27 1012.50 1011.81 1011.27 1010.56 1009.99 1009.58 1009.34 1009.52 1009.80 1009.11 1009.08 1008.83 1008.31 1007.59 1006.67 1005.27 1004.22 1003.95 1003.56 1002.87 1002.50 1002.65 1002.36 1002.05 1001.20 1000.57 999.99 999.00 998.18 997.51 997.42 997.25 997.02 996.86 996.26 995.67 995.80 995.81 995.55 994.81 994.55 994.20 994.21 994.44 994.64 994.92 995.31 994.43
1016.66 1015.55 1014.83 1013.98 1013.62 1013.00 1012.23 1011.52 1011.06 1010.28 1009.79 1009.48 1009.43 1009.74 1009.64 1009.30 1008.86 1007.57 1006.91 1006.25 1004.83 1004.24 1003.85 1003.27 1002.54 1002.49 1002.46 1002.24 1002.13 1002.11 1001.43 1000.70 1000.17 999.44 998.74 998.07 998.12 997.99 997.56 997.04 996.67 996.41 996.56 996.84 996.59 995.97 995.53 995.05 995.24 995.64 995.85 995.67 995.59 996.38
1016.40 1015.04 1014.18 1014.04 1013.40 1012.71 1012.00 1011.02 1010.48 1010.15 1009.86 1009.56 1009.41 1009.38 1008.68 1007.98 1007.01 1006.21 1005.55 1004.91 1004.41 1003.76 1002.76 1002.91 1003.05 1002.98 1003.22 1003.44 1003.24 1003.20 1002.81 1002.51 1001.81 999.99 999.39 999.09 999.07 998.41 998.00 997.48 997.53 997.74 997.81 997.33 997.42 996.96 996.42 996.72 996.37 997.07 996.89 997.13 998.29 997.21
1016.23 1014.92 1014.55 1014.09 1013.30 1012.46 1011.78 1010.96 1010.31 1010.10 1009.72 1009.55 1009.55 1009.18 1008.66 1007.89 1007.25 1006.35 1005.68 1005.11 1004.63 1003.97 1003.49 1003.58 1004.21 1004.72 1004.91 1004.41 1004.23 1004.33 1004.27 1003.82 1002.42 1001.29 1000.77 1000.02 999.41 999.05 998.94 998.94 999.09 999.08 998.87 998.64 997.87 997.90 997.98 998.15 997.42 998.84 998.49 999.95 999.84 998.57
1015.58 1014.63 1014.44 1014.11 1013.52 1012.24 1011.42 1011.01 1010.55 1010.18 1009.78 1009.70 1009.36 1008.89 1008.58 1008.00 1007.23 1006.48 1005.86 1005.25 1004.80 1004.43 1004.36 1004.66 1004.94 1005.00 1005.45 1005.78 1005.31 1005.33 1004.96 1004.56 1003.29 1002.38 1001.62 1000.96 999.99 999.46 999.07 999.23 999.42 999.37 999.26 999.09 999.11 999.34 999.34 999.62 1000.04 1000.05 1000.12 999.41 998.54 998.05
1016.11 1015.40 1014.62 1014.13 1013.82 1013.06 1011.79 1011.21 1011.20 1010.37 1009.98 1009.78 1009.35 1008.93 1008.33 1007.57 1007.42 1006.78 1006.16 1005.75 1005.36 1005.07 1004.58 1004.53 1005.16 1005.94 1006.34 1006.57 1005.86 1005.44 1005.03 1004.60 1004.10 1003.44 1002.47 1001.74 1000.74 1000.09 999.88 999.82 999.70 999.42 999.37 999.36 999.49 999.84 1000.18 1000.40 1000.32 1000.19 999.74 999.23 998.84 998.91
1015.12 1014.66 1014.29 1013.84 1013.63 1012.67 1011.79 1011.43 1011.47 1010.86 1010.17 1009.96 1009.45 1008.87 1008.45 1007.86 1007.53 1006.88 1006.61 1006.34 1006.00 1005.50 1005.61 1005.76 1005.96 1006.13 1006.34 1006.05 1005.57 1005.37 1004.77 1004.46 1004.05 1003.79 1002.92 1002.04 1001.67 1000.85 1000.48 1000.17 1000.01 1000.00 999.92 1000.05 1000.11 999.83 999.72 999.78 999.82 999.92 1000.03 999.92 999.93 1000.23
1014.63 1014.01 1013.56 1013.39 1012.90 1012.62 1012.20 1011.53 1010.99 1011.08 1010.72 1010.03 1009.31 1008.99 1008.46 1007.84 1007.46 1007.29 1007.14 1007.01 1006.99 1007.02 1006.90 1006.89 1006.70 1006.43 1006.21 1005.43 1005.21 1004.77 1004.12 1004.03 1003.73 1003.55 1003.40 1002.50 1001.81 1001.35 1001.13 1000.86 1000.73 1000.61 1000.48 1000.55 1000.54 1000.71 1000.74 1000.83 1000.95 1000.94 1000.99 1001.00 1000.88 1000.81
1014.70 1014.56 1013.69 1013.28 1012.95 1012.52 1012.19 1012.00 1011.74 1011.09 1010.91 1010.00 1009.47 1009.02 1008.54 1008.24 1007.85 1007.62 1007.90 1007.47 1007.60 1007.97 1008.11 1007.62 1007.10 1006.69 1005.89 1005.52 1005.27 1005.01 1004.37 1003.92 1003.79 1003.76 1003.64 1003.27 1002.74 1002.44 1002.02 1001.64 1001.47 1001.42 1001.52 1001.30 1001.33 1001.49 1001.72 1001.52 1001.14 1001.07 1001.03 1001.20 1001.22 1001.30
1014.93 1014.71 1013.85 1013.46 1013.14 1012.58 1012.16 1011.96 1011.44 1010.98 1010.44 1010.02 1009.78 1009.12 1008.61 1008.51 1008.29 1008.31 1007.99 1007.91 1007.91 1008.25 1008.19 1007.96 1007.64 1006.86 1006.30 1005.90 1005.57 1005.34 1005.01 1004.35 1004.14 1004.02 1003.88 1003.76 1003.59 1003.18 1003.00 1002.88 1002.77 1002.42 1002.57 1002.60 1002.48 1002.30 1002.40 1002.67 1002.19 1001.71 1001.61 1001.35 1001.25 1001.10
1015.31 1014.63 1013.81 1013.34 1013.01 1012.48 1012.13 1011.67 1011.61 1011.19 1010.76 1010.50 1010.16 1009.60 1009.26 1009.06 1008.92 1008.26 1008.06 1008.16 1008.37 1008.21 1008.04 1008.03 1007.63 1006.86 1006.33 1006.17 1005.91 1005.94 1005.94 1005.09 1004.90 1004.92 1004.64 1004.07 1003.96 1003.90 1003.94 1003.98 1003.97 1004.01 1003.79 1003.79 1003.59 1003.27 1003.01 1002.98 1003.06 1002.36 1002.25 1002.14 1002.12 1002.24
1015.15 1014.64 1014.07 1013.35 1012.91 1012.52 1012.01 1011.78 1011.59 1011.36 1011.00 1010.93 1010.69 1010.11 1009.93 1009.89 1009.19 1008.57 1008.48 1008.47 1008.42 1008.43 1008.51 1008.60 1008.45 1008.01 1007.27 1007.06 1006.79 1006.67 1006.79 1006.32 1005.59 1005.51 1005.75 1005.30 1004.48 1004.33 1004.42 1004.64 1005.09 1005.46 1005.00 1004.17 1003.90 1003.76 1003.67 1003.55 1003.15 1002.93 1002.76 1002.75 1002.80 1002.63
1014.63 1013.93 1013.56 1012.69 1012.41 1012.17 1011.81 1011.69 1011.61 1011.47 1011.21 1011.14 1011.03 1010.72 1010.58 1009.99 1009.40 1009.12 1008.94 1008.87 1008.84 1008.82 1009.11 1009.38 1009.47 1009.18 1008.48 1008.30 1007.84 1007.51 1007.37 1007.04 1006.52 1006.56 1006.90 1006.59 1006.34 1005.98 1005.81 1005.68 1005.54 1005.96 1006.23 1005.63 1004.97 1004.62 1004.23 1004.19 1003.96 1003.65 1003.58 1003.73 1003.89 1003.89
1013.68 1012.84 1012.54 1012.44 1012.13 1011.91 1011.71 1011.68 1011.71 1011.74 1011.36 1011.02 1010.90 1010.87 1010.49 1009.86 1009.02 1008.81 1009.08 1009.18 1009.22 1009.10 1009.46 1009.38 1009.30 1009.37 1009.52 1009.37 1008.95 1008.71 1008.25 1007.94 1007.68 1007.82 1007.96 1007.94 1007.94 1007.89 1007.70 1007.61 1007.72 1008.21 1007.60 1007.02 1006.51 1005.94 1005.41 1005.10 1004.97 1004.73 1004.63 1004.64 1004.86 1004.67
1012.22 1011.67 1011.43 1011.66 1011.59 1011.63 1011.34 1011.28 1011.19 1010.94 1010.64 1010.75 1010.85 1010.41 1009.98 1009.49 1009.12 1009.05 1009.21 1009.43 1009.47 1009.32 1009.18 1009.41 1009.51 1009.48 1009.52 1009.71 1009.75 1009.31 1008.80 1008.54 1008.35 1008.25 1008.09 1008.30 1008.71 1008.88 1008.81 1008.66 1008.79 1008.91 1008.23 1008.20 1007.85 1007.17 1006.84 1006.41 1006.25 1006.13 1005.86 1005.86 1005.81 1005.88
1011.24 1010.79 1010.72 1011.00 1011.10 1011.17 1010.74 1010.46 1010.18 1009.93 1010.18 1010.13 1010.08 1009.89 1009.49 1009.21 1009.13 1009.13 1009.18 1009.19 1009.29 1009.27 1009.00 1008.89 1008.98 1009.73 1009.75 1009.76 1009.99 1009.97 1009.70 1009.01 1007.86 1007.75 1007.71 1007.81 1008.03 1008.72 1009.05 1008.96 1008.82 1008.69 1008.42 1008.10 1008.53 1008.41 1008.03 1007.75 1007.38 1007.05 1006.75 1006.57 1006.64 1006.72
1010.00 1009.91 1010.00 1010.01 1010.11 1009.80 1009.36 1009.44 1009.24 1009.32 1009.53 1009.66 1009.54 1009.50 1009.35 1009.01 1008.86 1008.85 1008.73 1008.79 1008.76 1008.46 1008.26 1008.23 1008.83 1009.35 1009.39 1009.84 1010.17 1010.50 1010.44 1010.25 1009.96 1009.42 1009.02 1009.03 1009.32 1009.58 1009.50 1009.36 1009.18 1009.04 1008.86 1008.63 1008.54 1008.24 1008.45 1007.88 1007.82 1007.41 1007.48 1007.54 1007.72 1007.46
1008.80 1009.16 1009.18 1009.23 1009.03 1008.72 1008.56 1008.61 1008.91 1009.21 1009.36 1009.30 1009.19 1008.91 1008.55 1008.46 1008.40 1008.38 1008.47 1008.68 1008.64 1008.41 1008.33 1008.34 1008.72 1009.32 1009.90 1010.32 1010.64 1010.69 1010.52 1010.92 1011.09 1011.14 1011.10 1010.37 1010.17 1010.12 1010.12 1009.98 1009.70 1009.49 1009.32 1009.19 1009.20 1009.06 1008.86 1008.90 1009.13 1009.22 1009.26 1009.23 1009.32 1009.31
1008.48 1008.36 1008.46 1008.77 1008.71 1008.67 1008.60 1008.67 1008.54 1008.50 1008.41 1008.31 1008.09 1007.99 1007.79 1007.64 1007.55 1007.96 1008.86 1009.41 1009.10 1008.69 1008.73 1009.25 1009.40 1010.20 1010.55 1010.93 1011.25 1011.56 1011.50 1011.41 1011.71 1011.91 1011.86 1011.44 1011.13 1011.05 1010.75 1010.55 1010.30 1010.15 1009.98 1010.01 1010.10 1010.21 1010.29 1010.32 1010.29 1010.23 1010.25 1010.36 1010.24 1010.19
1008.06 1008.07 1008.45 1008.37 1008.60 1008.46 1008.34 1008.30 1008.46 1008.28 1008.22 1008.15 1008.02 1007.83 1007.56 1007.40 1007.55 1008.09 1009.63 1009.99 1009.88 1009.47 1009.68 1010.47 1010.91 1011.23 1011.44 1011.60 1011.74 1012.06 1012.01 1012.47 1013.05 1013.24 1013.24 1013.15 1012.89 1012.35 1011.47 1011.18 1011.03 1010.86 1010.78 1010.75 1010.75 1010.89 1010.93 1010.96 1010.99 1011.03 1011.06 1011.05 1011.07 1011.17
Wind_Speed
22 22 22 23 24 24 25 24 24 23 23 21 15 14 6 3 9 5 1 3 1 3 8 5 7 2 6 4 4 6 5 8 9 13 8 2 8 8 10 18 20 13 12 12 14 14 13 9 10 18 9 7 6 11
22 22 22 21 23 23 24 23 22 22 22 23 17 11 7 2 8 4 1 1 2 5 8 9 12 13 9 8 6 3 5 5 8 8 9 8 7 8 9 11 1 14 14 11 12 10 7 11 8 13 7 10 8 7
26 22 21 21 22 23 23 22 21 21 21 20 22 8 5 6 2 7 2 1 1 3 8 6 3 3 7 9 5 5 1 6 3 5 6 7 8 12 8 14 10 10 6 6 7 11 4 7 9 6 11 9 5 7
25 23 20 21 21 22 23 23 22 22 21 19 17 11 9 5 7 5 2 2 4 4 4 4 2 3 0 2 4 6 7 2 4 4 5 7 6 13 14 14 13 13 13 13 11 14 11 12 17 10 9 8 7 8
25 25 21 20 21 22 22 22 22 22 21 20 16 12 12 10 9 7 2 1 3 4 5 7 12 2 5 6 7 6 8 8 6 5 5 9 6 6 12 13 14 13 13 13 11 8 13 14 13 19 11 11 11 9
24 24 24 21 20 21 21 22 22 22 22 22 18 13 10 9 10 4 3 2 5 3 4 5 5 4 3 3 7 7 7 7 7 5 5 4 8 5 7 13 17 19 9 8 13 5 7 12 12 15 15 14 11 10
24 23 23 23 22 21 21 21 22 23 22 21 19 13 10 8 7 4 4 5 9 4 3 4 4 2 2 2 2 3 6 5 7 6 8 9 7 5 7 11 18 17 14 8 4 6 12 16 10 12 12 13 11 12
24 23 24 24 23 23 23 23 23 23 23 21 17 12 7 6 9 6 2 5 8 3 1 3 5 5 2 2 3 4 5 6 6 7 5 8 8 7 8 20 17 14 10 11 14 13 11 17 17 16 14 12 13 13
24 23 24 24 24 24 24 24 24 23 23 20 12 7 5 5 3 2 12 8 4 3 3 2 3 3 3 3 2 3 4 5 3 6 9 5 8 10 12 13 11 12 15 16 16 15 15 18 20 18 16 16 17 15
24 24 24 25 25 25 24 24 23 24 22 12 5 3 2 2 10 10 5 3 3 4 4 4 2 3 2 2 3 3 3 4 4 7 5 8 13 14 14 11 13 10 10 12 14 17 17 19 18 18 18 15 16 17
24 25 24 25 25 25 24 23 23 21 6 4 4 3 5 5 4 2 3 2 1 4 3 3 3 5 3 4 2 4 2 4 5 6 7 6 10 16 16 19 15 14 12 12 15 15 15 14 13 15 18 17 14 14
25 25 25 25 25 23 22 23 19 7 3 6 5 5 4 3 2 4 4 2 3 4 4 4 8 4 3 2 3 3 4 3 5 2 5 5 3 4 7 9 11 12 12 12 11 14 15 15 14 15 15 14 15 16
26 26 25 24 23 19 23 21 18 12 9 2 3 3 4 3 5 5 6 4 6 7 6 11 9 3 3 5 4 2 5 5 1 3 4 2 1 5 1 4 8 7 9 6 6 11 10 9 9 10 10 9 11 13
27 27 26 23 16 22 22 21 15 7 4 4 5 6 6 5 3 3 6 6 7 10 12 11 7 4 4 3 2 4 3 2 4 5 2 1 6 4 6 5 9 9 10 10 7 9 13 15 14 12 9 7 7 6
27 28 24 10 22 23 24 19 11 3 3 4 4 7 3 5 8 9 8 7 10 9 8 7 5 4 3 5 3 4 5 4 6 5 2 3 7 6 5 8 10 8 9 7 4 11 15 17 17 16 12 10 10 2
27 23 7 20 25 24 21 11 3 3 1 3 3 6 9 8 11 11 10 9 10 11 7 2 5 5 4 6 4 6 10 7 6 5 9 8 13 10 10 12 14 12 9 7 6 13 16 15 16 12 12 12 7 2
24 4 15 22 24 23 10 4 3 4 4 4 4 5 7 6 9 9 9 10 9 7 9 5 7 6 5 6 7 6 7 7 8 9 8 10 11 9 8 12 12 9 8 8 10 13 12 9 14 8 13 1 1 4
5 13 19 22 17 8 3 4 3 3 3 3 4 8 7 7 8 9 9 9 8 8 5 6 4 6 5 7 7 6 4 7 9 10 9 10 12 13 12 14 13 12 13 14 14 12 10 11 8 5 2 2 7 6
17 17 18 17 8 5 4 3 3 4 2 4 5 5 5 5 6 6 8 9 7 5 5 4 6 6 5 5 10 9 4 7 8 7 7 13 14 14 14 13 14 15 15 14 12 10 9 11 9 6 5 5 6 6
23 11 9 9 5 3 4 1 1 3 3 4 4 6 4 5 5 6 8 9 8 6 7 6 8 8 7 7 8 7 4 3 6 8 9 9 9 12 14 12 11 12 11 13 12 11 11 11 10 10 9 9 7 7
8 6 9 3 1 2 3 3 2 2 4 4 5 5 4 4 4 5 7 7 7 5 6 8 10 9 10 9 7 6 9 9 8 6 6 7 8 10 10 10 11 10 10 9 10 11 11 10 8 8 8 8 7 7
3 8 4 2 3 2 3 1 4 3 3 4 5 5 3 3 4 5 5 4 4 6 7 8 10 10 9 11 9 9 7 8 9 7 8 9 11 10 9 9 9 10 9 9 9 8 8 9 9 9 9 8 8 9
8 3 2 2 3 1 2 2 4 1 3 4 5 4 2 3 4 5 1 2 4 6 7 8 10 8 7 7 7 8 9 8 7 7 7 7 8 9 9 10 9 9 9 8 7 7 7 4 7 8 8 9 9 9
3 4 3 2 2 3 3 2 2 2 2 3 3 4 3 4 5 3 1 2 5 6 8 12 9 8 7 9 8 8 9 5 4 7 7 6 7 9 10 9 9 9 8 7 6 7 6 5 4 6 7 8 9 9
4 3 1 2 3 3 3 2 2 2 2 2 3 3 2 3 3 2 2 3 5 7 8 10 9 9 7 6 6 7 9 7 6 6 7 6 6 6 6 8 9 9 9 9 9 8 7 7 6 6 6 8 9 8
5 4 4 4 3 3 2 3 2 3 3 2 3 3 2 3 4 3 0 5 6 7 8 8 7 7 7 9 8 8 8 6 3 6 6 7 7 6 7 7 7 9 10 9 9 10 11 10 10 9 8 7 6 7
5 6 4 2 2 2 3 2 3 3 4 4 2 2 2 4 4 3 2 4 6 6 4 4 4 4 6 6 7 6 6 6 7 6 5 6 7 7 7 7 7 7 7 9 9 9 9 9 9 9 9 9 9 9
7 5 8 6 5 3 4 3 4 4 4 2 2 4 3 4 3 2 1 4 7 7 6 5 5 5 4 5 6 6 4 4 2 1 3 6 6 6 6 5 6 4 5 7 8 8 7 6 6 7 7 8 8 9
6 4 6 6 5 5 6 6 5 4 3 4 4 5 5 4 5 7 8 7 7 7 8 7 4 2 1 2 3 5 6 6 4 2 1 3 3 6 6 6 6 6 6 6 6 6 8 6 7 7 7 6 6 7
6 8 6 8 6 7 6 6 5 4 4 6 7 7 9 9 8 7 7 8 9 9 8 7 5 6 4 2 2 1 4 5 6 6 5 5 5 4 5 5 5 6 6 6 7 7 7 4 3 6 7 7 8 6
5 9 6 7 6 7 7 5 5 5 7 9 10 10 11 9 8 7 7 7 9 8 8 7 5 4 3 3 2 3 0 4 5 6 7 4 4 5 5 5 5 5 5 6 7 8 8 8 8 9 10 10 10 9
7 8 7 6 6 7 4 7 8 9 10 10 11 10 11 11 11 8 4 4 6 7 3 4 2 4 4 4 3 3 2 3 3 4 6 5 4 5 4 4 4 4 5 6 7 7 9 9 8 9 9 11 11 11
4 5 5 4 2 4 7 6 4 8 9 8 11 12 12 12 11 3 4 3 4 5 4 5 5 5 6 4 5 4 3 6 7 5 5 7 9 8 5 5 5 6 7 7 7 7 8 10 9 9 10 10 10 11
Wind_Direction
344 344 341 341 341 342 341 344 346 347 352 353 350 359 32 4 189 217 0 206 232 275 282 247 184 271 303 281 232 197 173 219 206 221 164 195 280 220 247 207 183 181 181 196 203 205 212 160 150 195 187 101 176 204
346 345 345 341 342 342 342 345 346 348 352 356 355 349 4 17 175 233 289 255 223 238 287 301 275 272 259 338 337 286 297 270 199 220 216 172 224 291 235 209 208 214 203 200 204 202 91 168 195 206 187 214 209 206
348 345 344 344 342 342 342 343 344 345 346 346 353 9 17 85 186 245 286 49 310 274 281 234 252 158 236 247 288 294 111 359 251 340 322 241 212 219 251 243 196 224 288 257 256 219 205 222 250 224 217 237 185 202
346 345 341 340 340 340 339 340 341 338 341 344 350 8 34 27 360 337 309 24 304 298 278 112 185 243 73 240 252 255 283 274 295 257 244 254 241 234 224 242 248 234 222 234 254 261 269 229 255 246 237 219 200 202
344 346 342 338 337 337 336 335 336 336 339 341 337 339 338 348 345 307 293 269 325 330 323 312 305 349 249 244 260 252 235 244 265 264 243 224 256 271 233 242 228 242 241 235 232 252 252 237 235 248 228 224 223 197
342 344 345 339 334 332 330 330 331 333 335 339 332 316 317 318 321 303 231 94 17 318 285 309 14 248 217 272 257 228 221 230 243 255 255 249 251 258 256 219 220 229 249 255 268 55 304 282 286 293 283 218 212 213
339 340 339 338 334 329 327 327 330 331 332 334 330 311 294 302 294 323 341 344 333 301 255 279 293 170 246 211 237 217 215 222 238 245 250 255 241 237 246 240 213 217 208 207 215 315 272 259 255 262 257 260 241 221
334 336 335 333 331 328 324 322 324 328 327 325 322 303 283 274 268 247 170 299 299 280 2 289 275 297 47 211 240 201 209 205 217 246 246 248 236 216 242 234 244 243 232 241 253 249 265 285 285 271 262 248 215 212
330 331 331 329 328 328 327 324 324 326 326 324 314 282 236 229 271 5 339 282 237 287 295 245 282 310 318 268 211 230 213 218 260 238 230 219 224 219 229 241 216 225 236 249 247 250 244 260 272 261 250 244 221 219
327 327 329 327 328 327 325 325 329 329 324 315 282 262 242 51 340 288 191 219 208 186 224 262 321 262 246 283 206 194 240 202 228 222 222 227 239 238 237 219 243 237 236 250 252 245 246 251 255 254 244 232 229 231
325 325 327 326 327 326 325 329 336 329 309 1 351 318 337 324 261 255 299 290 293 247 206 259 261 276 223 241 233 229 223 211 231 196 212 222 230 219 218 223 232 233 251 257 249 250 263 271 275 257 243 237 231 226
325 325 327 327 326 325 324 335 338 328 323 329 305 303 269 283 277 300 317 285 260 304 317 293 302 295 267 150 212 216 236 225 247 207 222 225 234 154 190 224 231 227 238 246 230 238 240 239 243 243 243 224 212 194
324 324 327 328 326 324 333 336 335 314 275 209 238 284 344 349 347 339 349 328 318 328 319 321 329 274 264 221 244 237 234 222 46 217 242 342 343 42 39 238 219 211 206 197 202 218 211 196 204 222 190 176 166 170
321 323 326 323 327 334 333 337 334 320 283 1 341 25 7 351 346 291 288 284 289 288 308 322 302 249 246 245 252 259 248 220 213 201 214 64 68 53 32 315 236 171 164 102 84 124 121 109 103 102 119 146 193 133
321 323 319 327 340 335 337 328 322 291 338 21 14 10 333 272 271 267 263 256 284 315 314 303 262 251 290 293 356 299 313 339 7 2 3 80 98 71 326 350 64 103 84 65 12 96 88 84 85 75 58 61 48 152
323 314 340 344 333 332 332 314 302 315 34 355 38 347 348 342 353 357 345 343 352 329 317 271 346 345 353 327 335 9 325 12 333 354 44 36 73 41 29 34 51 46 49 15 56 81 78 70 72 57 50 41 353 211
315 312 351 329 327 320 313 307 325 13 3 3 3 347 347 346 355 351 348 347 336 343 1 13 1 6 305 326 4 353 348 320 339 21 16 23 49 73 86 84 80 68 65 67 55 58 62 56 59 63 79 148 158 345
283 324 330 322 329 300 309 354 339 337 3 4 333 357 344 351 347 2 354 356 352 8 353 12 331 7 2 0 344 352 354 358 2 2 12 26 41 49 58 69 77 80 79 76 70 67 71 86 88 76 141 146 107 87
301 303 304 310 312 311 325 16 343 336 340 333 328 339 329 347 32 343 9 11 358 347 352 18 32 9 3 353 339 340 37 29 26 358 359 25 31 54 65 70 63 63 61 56 67 80 90 86 78 75 80 76 69 47
306 293 308 321 290 288 293 31 246 302 326 338 297 339 317 350 343 1 23 11 13 12 20 32 10 8 358 347 337 339 342 14 66 46 2 18 19 53 52 54 58 59 63 69 58 48 60 55 47 50 45 42 55 58
300 3 332 303 287 313 302 329 293 353 313 298 324 325 314 310 360 8 17 6 36 29 6 358 351 354 346 347 8 359 40 55 60 47 30 25 45 55 49 56 56 57 58 52 52 53 50 52 53 59 57 49 47 63
303 332 298 324 284 280 263 62 307 315 268 302 315 315 308 332 337 12 330 22 43 22 5 338 344 338 341 10 9 6 30 70 55 55 41 38 42 42 40 30 51 55 47 39 52 57 50 41 35 51 48 69 70 50
296 249 262 277 284 267 262 309 276 357 288 335 319 297 304 339 343 316 28 28 44 11 359 357 344 347 11 24 47 42 13 26 62 50 43 55 46 47 48 48 38 40 50 48 44 50 58 15 42 43 54 51 52 56
195 281 288 275 258 272 296 277 289 287 284 329 311 296 341 334 321 294 55 46 12 1 7 5 355 355 16 29 34 33 12 19 41 57 11 49 53 58 53 49 45 33 30 45 41 43 41 50 1 49 47 47 46 51
275 245 236 258 232 257 248 284 289 265 281 340 284 273 333 332 289 327 336 10 8 7 7 7 355 351 352 11 11 17 26 1 12 45 27 8 13 49 61 76 63 40 15 22 27 32 34 23 26 30 28 35 24 25
248 207 185 200 208 229 211 251 232 266 283 270 237 278 313 269 256 238 212 7 3 0 7 1 352 353 347 5 353 8 2 349 339 79 43 23 24 23 45 36 36 43 12 5 19 24 38 36 32 33 37 44 45 359
235 211 191 218 259 224 234 236 279 262 257 230 228 279 263 257 239 165 115 34 345 356 345 327 346 350 351 332 349 346 349 30 47 66 68 57 49 40 36 37 30 11 341 8 358 11 13 31 32 35 41 48 38 23
225 217 192 187 195 206 221 213 222 227 234 179 223 229 235 224 262 141 315 330 329 318 320 316 319 338 8 7 349 336 313 301 219 181 126 104 76 54 38 39 36 312 349 35 4 10 1 17 43 44 45 52 44 32
211 202 183 187 189 193 218 208 232 207 224 220 232 248 260 265 305 312 307 313 312 296 288 285 263 244 259 48 27 7 356 334 301 211 174 86 87 53 16 12 12 14 7 12 95 44 4 5 21 22 41 36 40 43
200 185 184 187 192 212 217 205 238 241 232 261 277 271 271 268 272 275 283 289 292 278 272 270 258 224 232 232 225 16 23 13 13 355 1 32 39 10 6 4 6 6 4 10 8 18 18 26 43 30 25 37 25 22
165 190 204 204 220 227 231 226 239 253 259 259 257 257 262 278 288 289 289 304 298 289 280 261 234 235 188 157 222 277 79 53 25 23 355 358 15 19 12 3 2 13 16 26 25 20 19 42 37 39 37 38 33 28
194 195 203 211 227 245 233 246 247 246 252 256 261 264 268 273 288 300 40 330 289 269 251 286 236 114 85 86 100 83 20 95 39 13 7 4 21 19 18 16 22 29 49 55 57 49 47 48 46 41 42 37 33 29
222 200 224 247 270 243 246 244 291 270 261 257 262 269 274 284 294 72 103 28 322 311 83 87 81 88 96 92 99 102 85 79 70 50 35 25 14 350 355 36 42 44 61 63 64 62 59 62 59 53 48 45 41 34